Date String (YYYY-MM-DD hh:mm:ss) UTC,Instrument flags,absolute air pressure of the measurement (hPa),sample flow rate (lpm),inlet stack bypass flow (lpm),air temperature of the measurement (°C),ambient temperature measured by the external sensor (°C),aerosol sample conditioner tube jacket temperature (°C),OPC LED temperature (°C),internal box temperature (°C),relative humidity of the measurement (%),span deviation,mass concentration of particles derived from Lorenz-Mie calculation of OPC scattering (μg/m³),mass concentration of particles derived from Lorenz-Mie calculation of OPC scattering (μg/m³),mass concentration of particles derived from Lorenz-Mie calculation of OPC scattering (μg/m³)
DateTimeUTC,F1_M11,P_M11,Q1_M11,Q2_M11,T1_M11,T2_M11,T3_M11,T4_M11,T5_M11,U1_M11,ZSPAN_M11,X0_M11,X2_M11,X1_M11
2024-01-11 05:00:00,SystemResetWarning,0811.1,5.00,000.00,018.9,018.7,000.0,027.2,020.0,9.5,0000.0,0003.83,0002.77,0002.34
2024-01-11 05:01:00,SystemResetWarning,0811.1,5.01,000.00,018.8,018.4,000.0,027.2,020.0,9.5,0000.0,0003.77,0002.74,0002.32
2024-01-11 05:02:00,SystemResetWarning,0811.1,5.00,000.00,018.8,018.2,000.0,027.2,020.0,9.5,0000.0,0003.83,0002.74,0002.30
2024-01-11 05:03:00,SystemResetWarning,0811.0,5.00,000.00,018.8,018.1,000.0,027.3,020.0,9.5,0000.0,0003.82,0002.73,0002.27
2024-01-11 05:04:00,SystemResetWarning,0811.0,5.00,000.00,018.8,018.0,000.0,027.3,020.0,9.5,0000.0,0003.72,0002.68,0002.25
2024-01-11 05:05:00,SystemResetWarning,0811.0,4.99,000.00,018.8,017.8,000.0,027.3,020.0,9.5,0000.0,0003.73,0002.69,0002.27
2024-01-11 05:06:00,SystemResetWarning,0810.9,5.00,000.00,018.8,017.7,000.0,027.3,020.0,9.5,0000.0,0003.77,0002.72,0002.29
2024-01-11 05:07:00,SystemResetWarning,0810.9,4.99,000.00,018.8,017.7,000.0,027.3,020.0,9.5,0000.0,0003.80,0002.75,0002.32
2024-01-11 05:08:00,SystemResetWarning,0810.8,5.01,000.00,018.8,017.6,000.0,027.3,020.0,9.5,0000.0,0004.03,0002.78,0002.34
2024-01-11 05:09:00,SystemResetWarning,0810.8,5.01,000.00,018.8,017.5,000.0,027.3,020.0,9.4,0000.0,0004.11,0002.83,0002.38
2024-01-11 05:10:00,SystemResetWarning,0810.9,5.01,000.00,018.8,017.5,000.0,027.3,020.0,9.4,0000.0,0004.08,0002.84,0002.41
2024-01-11 05:11:00,SystemResetWarning,0810.8,4.99,000.00,018.8,017.5,000.0,027.3,020.0,9.3,0000.0,0004.07,0002.87,0002.44
2024-01-11 05:12:00,SystemResetWarning,0810.8,4.99,000.00,018.7,017.5,000.0,027.3,020.0,9.3,0000.0,0004.17,0002.94,0002.50
2024-01-11 05:13:00,SystemResetWarning,0810.7,4.99,000.00,018.7,017.5,000.0,027.3,020.0,9.3,0000.0,0004.17,0002.97,0002.55
2024-01-11 05:14:00,SystemResetWarning,0810.7,5.00,000.00,018.7,017.5,000.0,027.3,020.0,9.2,0000.0,0004.21,0003.00,0002.60
2024-01-11 05:15:00,SystemResetWarning,0810.7,5.00,000.00,018.7,017.5,000.0,027.3,020.0,9.2,0000.0,0004.36,0003.10,0002.69
2024-01-11 05:16:00,SystemResetWarning,0810.6,5.00,000.00,018.7,017.5,000.0,027.3,020.0,9.2,0000.0,0004.51,0003.15,0002.73
2024-01-11 05:17:00,SystemResetWarning,0810.6,5.01,000.00,018.7,017.5,000.0,027.3,020.0,9.2,0000.0,0004.63,0003.19,0002.79
2024-01-11 05:18:00,SystemResetWarning,0810.6,5.00,000.00,018.7,017.6,000.0,027.2,020.1,9.2,0000.0,0004.64,0003.20,0002.85
2024-01-11 05:19:00,SystemResetWarning,0810.7,5.00,000.00,018.8,018.3,000.0,027.2,020.5,9.2,0000.0,0004.59,0003.24,0002.91
2024-01-11 05:20:00,SystemResetWarning,0810.7,5.00,000.00,018.9,019.0,000.0,027.2,020.7,9.1,0000.0,0004.61,0003.27,0002.98
2024-01-11 05:21:00,SystemResetWarning,0810.8,4.99,000.00,019.0,018.9,000.0,027.2,020.3,9.1,0000.0,0004.77,0003.33,0003.04
2024-01-11 05:22:00,SystemResetWarning,0810.9,4.99,000.00,018.9,018.7,000.0,027.2,020.0,9.1,0000.0,0004.87,0003.37,0003.10
2024-01-11 05:23:00,SystemResetWarning,0811.0,5.00,000.00,018.9,018.5,000.0,027.2,020.0,9.2,0000.0,0005.06,0003.43,0003.14
2024-01-11 05:24:00,SystemResetWarning,0811.0,5.00,000.00,018.9,018.3,000.0,027.2,020.0,9.2,0000.0,0005.26,0003.50,0003.19
2024-01-11 05:25:00,SystemResetWarning,0810.9,5.00,000.00,018.9,018.2,000.0,027.2,020.0,9.2,0000.0,0005.44,0003.57,0003.24
2024-01-11 05:26:00,SystemResetWarning,0810.9,5.00,000.00,018.8,018.1,000.0,027.3,020.0,9.2,0000.0,0005.50,0003.60,0003.27
2024-01-11 05:27:00,SystemResetWarning,0810.9,5.00,000.00,018.8,018.0,000.0,027.3,020.0,9.3,0000.0,0005.57,0003.64,0003.32
2024-01-11 05:28:00,SystemResetWarning,0810.8,5.00,000.00,018.8,017.9,000.0,027.3,020.0,9.3,0000.0,0005.58,0003.66,0003.35
2024-01-11 05:29:00,SystemResetWarning,0810.8,5.00,000.00,018.8,017.9,000.0,027.3,020.0,9.3,0000.0,0005.64,0003.69,0003.38
2024-01-11 05:30:00,SystemResetWarning,0810.9,5.01,000.00,018.8,017.9,000.0,027.3,020.0,9.3,0000.0,0005.69,0003.71,0003.40
2024-01-11 05:31:00,SystemResetWarning,0810.9,5.00,000.00,018.8,017.8,000.0,027.3,020.0,9.3,0000.0,0005.60,0003.71,0003.41
2024-01-11 05:32:00,SystemResetWarning,0810.9,5.00,000.00,018.8,017.8,000.0,027.3,020.0,9.4,0000.0,0005.52,0003.71,0003.44
2024-01-11 05:33:00,SystemResetWarning,0810.9,5.00,000.00,018.8,017.8,000.0,027.3,020.0,9.4,0000.0,0005.57,0003.75,0003.47
2024-01-11 05:34:00,SystemResetWarning,0810.9,5.00,000.00,018.8,017.8,000.0,027.2,020.0,9.4,0000.0,0005.60,0003.76,0003.48
2024-01-11 05:35:00,SystemResetWarning,0810.9,5.00,000.00,018.7,017.8,000.0,027.2,020.0,9.3,0000.0,0005.65,0003.78,0003.49
2024-01-11 05:36:00,SystemResetWarning,0810.8,5.00,000.00,018.7,017.8,000.0,027.2,020.0,9.3,0000.0,0005.61,0003.78,0003.49
2024-01-11 05:37:00,SystemResetWarning,0810.8,5.00,000.00,018.7,017.8,000.0,027.2,020.0,9.4,0000.0,0005.60,0003.77,0003.50
2024-01-11 05:38:00,SystemResetWarning,0810.7,5.00,000.00,018.7,017.8,000.0,027.2,020.0,9.4,0000.0,0005.66,0003.78,0003.48
2024-01-11 05:39:00,SystemResetWarning,0810.7,5.00,000.00,018.7,017.8,000.0,027.2,020.0,9.4,0000.0,0005.74,0003.78,0003.47
2024-01-11 05:40:00,SystemResetWarning,0810.6,5.00,000.00,018.7,017.8,000.0,027.2,020.0,9.4,0000.0,0005.82,0003.78,0003.45
2024-01-11 05:41:00,SystemResetWarning,0810.6,5.00,000.00,018.7,017.8,000.0,027.2,020.0,9.5,0000.0,0005.80,0003.78,0003.44
2024-01-11 05:42:00,SystemResetWarning,0810.6,5.00,000.00,018.7,017.8,000.0,027.2,020.0,9.5,0000.0,0005.75,0003.76,0003.43
2024-01-11 05:43:00,SystemResetWarning,0810.6,5.00,000.00,018.7,017.8,000.0,027.2,020.0,9.5,0000.0,0005.80,0003.76,0003.43
2024-01-11 05:44:00,SystemResetWarning,0810.6,5.00,000.00,018.7,017.8,000.0,027.2,020.0,9.5,0000.0,0005.79,0003.74,0003.42
2024-01-11 05:45:00,SystemResetWarning,0810.6,5.00,000.00,018.7,017.7,000.0,027.2,020.0,9.5,0000.0,0005.83,0003.73,0003.40
2024-01-11 05:46:00,SystemResetWarning,0810.6,5.00,000.00,018.7,017.7,000.0,027.2,020.0,9.5,0000.0,0005.72,0003.70,0003.39
2024-01-11 05:47:00,SystemResetWarning,0810.6,5.00,000.00,018.7,017.7,000.0,027.2,020.0,9.5,0000.0,0005.66,0003.67,0003.38
2024-01-11 05:48:00,SystemResetWarning,0810.6,5.00,000.00,018.7,017.8,000.0,027.2,020.0,9.4,0000.0,0005.79,0003.69,0003.38
2024-01-11 05:49:00,SystemResetWarning,0810.6,5.00,000.00,018.7,017.8,000.0,027.2,020.0,9.4,0000.0,0005.84,0003.71,0003.39
2024-01-11 05:50:00,SystemResetWarning,0810.5,5.00,000.00,018.7,017.7,000.0,027.2,020.0,9.4,0000.0,0005.83,0003.72,0003.40
2024-01-11 05:51:00,SystemResetWarning,0810.5,5.00,000.00,018.7,017.7,000.0,027.2,020.0,9.4,0000.0,0005.80,0003.74,0003.43
2024-01-11 05:52:00,SystemResetWarning,0810.5,5.00,000.00,018.7,017.7,000.0,027.2,020.0,9.4,0000.0,0005.97,0003.79,0003.46
2024-01-11 05:53:00,SystemResetWarning,0810.5,5.00,000.00,018.7,017.7,000.0,027.2,020.0,9.4,0000.0,0006.15,0003.83,0003.49
2024-01-11 05:54:00,SystemResetWarning,0810.6,5.00,000.00,018.7,017.7,000.0,027.2,020.1,9.4,0000.0,0006.20,0003.85,0003.51
2024-01-11 05:55:00,SystemResetWarning,0810.5,5.00,000.00,018.7,018.2,000.0,027.2,020.4,9.3,0000.0,0006.31,0003.88,0003.53
2024-01-11 05:56:00,SystemResetWarning,0810.6,5.00,000.00,018.9,019.0,000.0,027.2,020.8,9.2,0000.0,0006.18,0003.87,0003.53
2024-01-11 05:57:00,SystemResetWarning,0810.5,5.00,000.00,019.0,019.1,000.0,027.2,020.6,9.2,0000.0,0006.15,0003.86,0003.53
2024-01-11 05:58:00,SystemResetWarning,0810.4,4.99,000.00,019.0,019.0,000.0,027.2,020.4,9.2,0000.0,0006.21,0003.89,0003.53
2024-01-11 05:59:00,SystemResetWarning,0810.4,5.00,000.00,019.0,018.8,000.0,027.2,020.2,9.2,0000.0,0006.72,0003.87,0003.51
